Time,TemperatureF,DewpointF,PressureIn,WindDirection,WindDirectionDegrees,WindSpeedMPH,WindSpeedGustMPH,Humidity,HourlyPrecipIn,Conditions,Clouds,dailyrainin,SoftwareType,DateUTC
2013-02-02 00:00:00,27.5,12.2,30.27,NNE,22,4.3,4.3,52,0.00,,CLR,0.00,VWS V14.01,2013-02-02 05:00:00,
2013-02-02 00:02:00,27.7,12.4,30.27,NNE,22,2.5,2.5,52,0.00,,CLR,0.00,VWS V14.01,2013-02-02 05:02:00,
2013-02-02 00:07:00,27.5,12.2,30.27,NNE,22,2.0,2.0,52,0.00,,CLR,0.00,VWS V14.01,2013-02-02 05:07:00,
2013-02-02 00:12:00,27.3,12.0,30.27,North,0,0.9,0.9,52,0.00,,CLR,0.00,VWS V14.01,2013-02-02 05:12:00,
2013-02-02 00:18:00,27.1,11.9,30.27,NNE,22,2.7,2.7,52,0.00,,CLR,0.00,VWS V14.01,2013-02-02 05:18:00,
2013-02-02 00:23:00,27.3,12.0,30.27,NNE,22,3.1,3.1,52,0.00,,CLR,0.00,VWS V14.01,2013-02-02 05:23:00,
2013-02-02 00:28:00,27.1,11.9,30.27,NE,45,2.7,2.7,52,0.00,,CLR,0.00,VWS V14.01,2013-02-02 05:28:00,
2013-02-02 00:33:00,27.0,11.7,30.27,NNE,22,2.5,2.5,52,0.00,,CLR,0.00,VWS V14.01,2013-02-02 05:33:00,
2013-02-02 00:38:00,26.8,11.5,30.27,NNE,22,3.8,3.8,52,0.00,,CLR,0.00,VWS V14.01,2013-02-02 05:38:00,
2013-02-02 00:43:00,26.8,11.5,30.27,NE,45,2.7,2.7,52,0.00,,CLR,0.00,VWS V14.01,2013-02-02 05:43:00,
2013-02-02 00:48:00,26.6,11.8,30.27,ENE,68,2.5,2.5,53,0.00,,CLR,0.00,VWS V14.01,2013-02-02 05:48:00,
2013-02-02 00:53:00,26.4,11.6,30.24,NNE,22,2.5,2.5,53,0.00,,CLR,0.00,VWS V14.01,2013-02-02 05:53:00,
2013-02-02 00:58:00,26.6,11.8,30.24,NNE,22,2.0,2.0,53,0.00,,CLR,0.00,VWS V14.01,2013-02-02 05:58:00,
2013-02-02 01:03:00,26.4,11.6,30.24,ENE,68,2.7,2.7,53,0.00,,CLR,0.00,VWS V14.01,2013-02-02 06:03:00,
2013-02-02 01:09:00,26.1,11.3,30.24,NNE,22,2.5,2.5,53,0.00,,CLR,0.00,VWS V14.01,2013-02-02 06:09:00,
2013-02-02 01:14:00,26.2,11.4,30.24,NNE,22,2.0,2.0,53,0.00,,CLR,0.00,VWS V14.01,2013-02-02 06:14:00,
2013-02-02 01:19:00,26.1,11.3,30.24,NE,45,2.9,2.9,53,0.00,,CLR,0.00,VWS V14.01,2013-02-02 06:19:00,
2013-02-02 01:24:00,25.9,11.1,30.24,East,90,3.4,3.4,53,0.00,,CLR,0.00,VWS V14.01,2013-02-02 06:24:00,
2013-02-02 01:29:00,25.7,10.9,30.24,NE,45,2.2,2.2,53,0.00,,CLR,0.00,VWS V14.01,2013-02-02 06:29:00,
2013-02-02 01:34:00,25.5,10.8,30.24,NE,45,2.2,2.2,53,0.00,,CLR,0.00,VWS V14.01,2013-02-02 06:34:00,
2013-02-02 01:39:00,25.5,10.8,30.27,NE,45,2.9,2.9,53,0.00,,CLR,0.00,VWS V14.01,2013-02-02 06:39:00,
2013-02-02 01:44:00,25.3,10.6,30.27,ENE,68,2.2,2.2,53,0.00,,CLR,0.00,VWS V14.01,2013-02-02 06:44:00,
2013-02-02 01:49:00,25.3,10.6,30.27,NE,45,1.6,1.6,53,0.00,,CLR,0.00,VWS V14.01,2013-02-02 06:49:00,
2013-02-02 01:54:00,25.3,10.6,30.27,NNE,22,2.2,2.2,53,0.00,,CLR,0.00,VWS V14.01,2013-02-02 06:54:00,
2013-02-02 01:59:00,25.5,10.8,30.27,NE,45,2.7,2.7,53,0.00,,CLR,0.00,VWS V14.01,2013-02-02 06:59:00,
2013-02-02 02:04:00,25.3,10.6,30.27,NE,45,2.5,2.5,53,0.00,,CLR,0.00,VWS V14.01,2013-02-02 07:04:00,
2013-02-02 02:09:00,25.2,10.4,30.27,NE,45,2.7,2.7,53,0.00,,CLR,0.00,VWS V14.01,2013-02-02 07:09:00,
2013-02-02 02:14:00,25.0,10.3,30.27,ENE,68,2.0,2.0,53,0.00,,CLR,0.00,VWS V14.01,2013-02-02 07:14:00,
2013-02-02 02:19:00,25.0,10.3,30.27,East,90,1.6,1.6,53,0.00,,CLR,0.00,VWS V14.01,2013-02-02 07:19:00,
2013-02-02 02:24:00,25.2,10.4,30.27,East,90,2.5,2.5,53,0.00,,CLR,0.00,VWS V14.01,2013-02-02 07:24:00,
2013-02-02 02:29:00,25.2,10.4,30.27,East,90,2.7,2.7,53,0.00,,CLR,0.00,VWS V14.01,2013-02-02 07:29:00,
2013-02-02 02:34:00,25.0,10.3,30.27,East,90,2.5,2.5,53,0.00,,CLR,0.00,VWS V14.01,2013-02-02 07:34:00,
2013-02-02 02:39:00,25.0,10.3,30.27,ENE,68,2.5,2.5,53,0.00,,CLR,0.00,VWS V14.01,2013-02-02 07:39:00,
2013-02-02 02:45:00,24.8,10.1,30.27,NE,45,2.7,2.7,53,0.00,,CLR,0.00,VWS V14.01,2013-02-02 07:45:00,
2013-02-02 02:50:00,25.0,10.3,30.27,NE,45,2.0,2.0,53,0.00,,CLR,0.00,VWS V14.01,2013-02-02 07:50:00,
2013-02-02 02:55:00,25.2,10.4,30.27,ENE,68,2.7,2.7,53,0.00,,CLR,0.00,VWS V14.01,2013-02-02 07:55:00,
2013-02-02 03:00:00,25.2,10.4,30.27,ENE,68,2.2,2.2,53,0.00,,CLR,0.00,VWS V14.01,2013-02-02 08:00:00,
2013-02-02 03:06:00,24.4,9.8,30.27,ENE,68,1.6,1.6,53,0.00,,CLR,0.00,VWS V14.01,2013-02-02 08:06:00,
2013-02-02 03:11:00,24.3,9.6,30.27,East,90,0.0,0.0,53,0.00,,CLR,0.00,VWS V14.01,2013-02-02 08:11:00,
2013-02-02 03:16:00,24.1,9.4,30.27,NE,45,1.6,1.6,53,0.00,,CLR,0.00,VWS V14.01,2013-02-02 08:16:00,
2013-02-02 03:21:00,24.3,9.6,30.27,NNE,22,1.1,1.1,53,0.00,,CLR,0.00,VWS V14.01,2013-02-02 08:21:00,
2013-02-02 03:26:00,24.3,9.6,30.27,NNE,22,0.0,0.0,53,0.00,,CLR,0.00,VWS V14.01,2013-02-02 08:26:00,
2013-02-02 03:31:00,24.1,9.4,30.27,East,90,1.3,1.3,53,0.00,,CLR,0.00,VWS V14.01,2013-02-02 08:31:00,
2013-02-02 03:36:00,24.1,9.4,30.27,ENE,68,0.0,0.0,53,0.00,,CLR,0.00,VWS V14.01,2013-02-02 08:36:00,
2013-02-02 03:41:00,24.1,9.4,30.27,NE,45,1.6,1.6,53,0.00,,CLR,0.00,VWS V14.01,2013-02-02 08:41:00,
2013-02-02 03:46:00,23.9,9.3,30.27,ENE,68,2.0,2.0,53,0.00,,CLR,0.00,VWS V14.01,2013-02-02 08:46:00,
2013-02-02 03:51:00,23.5,8.9,30.27,NNE,22,2.2,2.2,53,0.00,,CLR,0.00,VWS V14.01,2013-02-02 08:51:00,
2013-02-02 03:56:00,23.5,8.9,30.27,NE,45,1.3,1.3,53,0.00,,CLR,0.00,VWS V14.01,2013-02-02 08:56:00,
2013-02-02 04:02:00,23.5,8.9,30.27,NE,45,2.2,2.2,53,0.00,,CLR,0.00,VWS V14.01,2013-02-02 09:02:00,
2013-02-02 04:07:00,23.4,8.8,30.27,East,90,2.9,2.9,53,0.00,,CLR,0.00,VWS V14.01,2013-02-02 09:07:00,
2013-02-02 04:12:00,23.5,8.9,30.27,ENE,68,2.0,2.0,53,0.00,,CLR,0.00,VWS V14.01,2013-02-02 09:12:00,
2013-02-02 04:17:00,23.5,8.9,30.27,ESE,112,2.9,2.9,53,0.00,,CLR,0.00,VWS V14.01,2013-02-02 09:17:00,
2013-02-02 04:22:00,23.5,8.9,30.27,ESE,112,2.7,2.7,53,0.00,,CLR,0.00,VWS V14.01,2013-02-02 09:22:00,
2013-02-02 04:27:00,23.5,8.9,30.27,East,90,3.1,3.1,53,0.00,,CLR,0.00,VWS V14.01,2013-02-02 09:27:00,
2013-02-02 04:32:00,23.5,8.9,30.27,East,90,3.4,3.4,53,0.00,,CLR,0.00,VWS V14.01,2013-02-02 09:32:00,
2013-02-02 04:38:00,23.5,8.9,30.27,East,90,1.6,1.6,53,0.00,,CLR,0.00,VWS V14.01,2013-02-02 09:38:00,
2013-02-02 04:43:00,23.7,9.1,30.27,ESE,112,2.7,2.7,53,0.00,,CLR,0.00,VWS V14.01,2013-02-02 09:43:00,
2013-02-02 04:49:00,23.9,9.3,30.27,ESE,112,3.8,3.8,53,0.00,,CLR,0.00,VWS V14.01,2013-02-02 09:49:00,
2013-02-02 04:54:00,23.9,9.3,30.27,ESE,112,2.9,2.9,53,0.00,,CLR,0.00,VWS V14.01,2013-02-02 09:54:00,
2013-02-02 06:20:00,22.8,8.7,30.27,ESE,112,2.7,2.7,54,0.00,,CLR,0.00,VWS V14.01,2013-02-02 11:20:00,
2013-02-02 06:25:00,23.2,8.6,30.27,ESE,112,2.5,2.5,53,0.00,,CLR,0.00,VWS V14.01,2013-02-02 11:25:00,
2013-02-02 06:30:00,23.2,8.6,30.27,ESE,112,2.7,2.7,53,0.00,,CLR,0.00,VWS V14.01,2013-02-02 11:30:00,
2013-02-02 06:35:00,23.0,8.9,30.27,ESE,112,3.6,3.6,54,0.00,,CLR,0.00,VWS V14.01,2013-02-02 11:35:00,
2013-02-02 06:41:00,23.0,8.9,30.27,ESE,112,2.9,2.9,54,0.00,,CLR,0.00,VWS V14.01,2013-02-02 11:41:00,
2013-02-02 06:46:00,23.2,8.6,30.27,ESE,112,2.9,2.9,53,0.00,,CLR,0.00,VWS V14.01,2013-02-02 11:46:00,
2013-02-02 06:51:00,23.2,8.6,30.27,ESE,112,3.1,3.1,53,0.00,,CLR,0.00,VWS V14.01,2013-02-02 11:51:00,
2013-02-02 06:56:00,23.0,8.9,30.27,ESE,112,2.7,2.7,54,0.00,,CLR,0.00,VWS V14.01,2013-02-02 11:56:00,
2013-02-02 07:01:00,22.8,8.7,30.27,East,90,2.5,2.5,54,0.00,,CLR,0.00,VWS V14.01,2013-02-02 12:01:00,
2013-02-02 07:06:00,22.8,8.7,30.27,ESE,112,2.5,2.5,54,0.00,,CLR,0.00,VWS V14.01,2013-02-02 12:06:00,
2013-02-02 07:11:00,22.8,8.7,30.27,ESE,112,3.1,3.1,54,0.00,,CLR,0.00,VWS V14.01,2013-02-02 12:11:00,
2013-02-02 07:16:00,23.0,8.9,30.27,ESE,112,3.1,3.1,54,0.00,,CLR,0.00,VWS V14.01,2013-02-02 12:16:00,
2013-02-02 07:21:00,23.2,8.6,30.27,ESE,112,2.9,2.9,53,0.00,,CLR,0.00,VWS V14.01,2013-02-02 12:21:00,
2013-02-02 07:26:00,23.0,8.9,30.27,ESE,112,2.5,2.5,54,0.00,,CLR,0.00,VWS V14.01,2013-02-02 12:26:00,
2013-02-02 07:31:00,23.0,8.9,30.27,ESE,112,2.7,2.7,54,0.00,,CLR,0.00,VWS V14.01,2013-02-02 12:31:00,
2013-02-02 07:36:00,23.0,8.9,30.27,East,90,2.5,2.5,54,0.00,,CLR,0.00,VWS V14.01,2013-02-02 12:36:00,
2013-02-02 07:41:00,23.0,8.9,30.27,ESE,112,3.1,3.1,54,0.00,,CLR,0.00,VWS V14.01,2013-02-02 12:41:00,
2013-02-02 07:46:00,23.2,8.6,30.27,ESE,112,2.7,2.7,53,0.00,,CLR,0.00,VWS V14.01,2013-02-02 12:46:00,
2013-02-02 07:51:00,23.5,8.9,30.27,ESE,112,3.8,3.8,53,0.00,,CLR,0.00,VWS V14.01,2013-02-02 12:51:00,
2013-02-02 07:56:00,23.9,9.3,30.27,ESE,112,4.5,4.5,53,0.00,,CLR,0.00,VWS V14.01,2013-02-02 12:56:00,
2013-02-02 08:02:00,24.6,9.9,30.27,SE,135,2.9,2.9,53,0.00,,CLR,0.00,VWS V14.01,2013-02-02 13:02:00,
2013-02-02 08:08:00,25.2,10.4,30.27,ESE,112,3.1,3.1,53,0.00,,CLR,0.00,VWS V14.01,2013-02-02 13:08:00,
2013-02-02 08:13:00,25.7,10.9,30.27,SE,135,5.6,5.6,53,0.00,,CLR,0.00,VWS V14.01,2013-02-02 13:13:00,
2013-02-02 08:18:00,26.1,11.3,30.27,SE,135,4.9,4.9,53,0.00,,CLR,0.00,VWS V14.01,2013-02-02 13:18:00,
2013-02-02 08:23:00,26.4,11.6,30.27,ESE,112,4.9,4.9,53,0.00,,CLR,0.00,VWS V14.01,2013-02-02 13:23:00,
2013-02-02 08:29:00,26.8,11.5,30.27,SE,135,7.2,7.2,52,0.00,,CLR,0.00,VWS V14.01,2013-02-02 13:29:00,
2013-02-02 08:34:00,27.1,11.9,30.27,ESE,112,8.5,8.5,52,0.00,,CLR,0.00,VWS V14.01,2013-02-02 13:34:00,
2013-02-02 08:39:00,27.3,12.0,30.27,SE,135,5.4,5.4,52,0.00,,CLR,0.00,VWS V14.01,2013-02-02 13:39:00,
2013-02-02 08:44:00,27.7,12.4,30.27,SE,135,9.0,9.0,52,0.00,,CLR,0.00,VWS V14.01,2013-02-02 13:44:00,
2013-02-02 08:49:00,27.9,12.5,30.27,SE,135,6.3,6.3,52,0.00,,CLR,0.00,VWS V14.01,2013-02-02 13:49:00,
2013-02-02 08:54:00,28.0,12.7,30.27,SE,135,9.8,9.8,52,0.00,,CLR,0.00,VWS V14.01,2013-02-02 13:54:00,
2013-02-02 08:59:00,28.2,12.9,30.27,SE,135,8.5,8.5,52,0.00,,CLR,0.00,VWS V14.01,2013-02-02 13:59:00,
2013-02-02 09:04:00,28.6,13.2,30.27,SE,135,8.1,8.1,52,0.00,,CLR,0.00,VWS V14.01,2013-02-02 14:04:00,
2013-02-02 09:09:00,28.8,13.4,30.27,ESE,112,7.8,7.8,52,0.00,,CLR,0.00,VWS V14.01,2013-02-02 14:09:00,
2013-02-02 09:14:00,29.3,13.9,30.27,SE,135,8.7,8.7,52,0.00,,CLR,0.00,VWS V14.01,2013-02-02 14:14:00,
2013-02-02 09:19:00,29.5,14.0,30.27,East,90,7.4,7.4,52,0.00,,CLR,0.00,VWS V14.01,2013-02-02 14:19:00,
2013-02-02 09:24:00,29.7,14.2,30.27,SE,135,8.7,8.7,52,0.00,,CLR,0.00,VWS V14.01,2013-02-02 14:24:00,
2013-02-02 09:29:00,30.0,14.5,30.27,SE,135,6.3,6.3,52,0.00,,CLR,0.00,VWS V14.01,2013-02-02 14:29:00,
2013-02-02 09:35:00,30.4,14.9,30.27,ESE,112,5.6,5.6,52,0.00,,CLR,0.00,VWS V14.01,2013-02-02 14:35:00,
2013-02-02 09:40:00,30.4,14.9,30.27,ESE,112,5.4,5.4,52,0.00,,CLR,0.00,VWS V14.01,2013-02-02 14:40:00,
2013-02-02 09:45:00,30.6,15.0,30.27,ESE,112,5.4,5.4,52,0.00,,CLR,0.00,VWS V14.01,2013-02-02 14:45:00,
2013-02-02 09:50:00,31.3,15.7,30.27,ESE,112,4.9,4.9,52,0.00,,CLR,0.00,VWS V14.01,2013-02-02 14:50:00,
2013-02-02 09:55:00,31.6,16.0,30.27,ESE,112,6.5,6.5,52,0.00,,CLR,0.00,VWS V14.01,2013-02-02 14:55:00,
2013-02-02 10:00:00,31.8,16.2,30.27,ESE,112,7.4,7.4,52,0.00,,CLR,0.00,VWS V14.01,2013-02-02 15:00:00,
2013-02-02 10:05:00,32.5,16.9,30.27,ESE,112,3.8,3.8,52,0.00,,CLR,0.00,VWS V14.01,2013-02-02 15:05:00,
2013-02-02 10:10:00,32.7,17.0,30.27,SE,135,5.8,5.8,52,0.00,,CLR,0.00,VWS V14.01,2013-02-02 15:10:00,
2013-02-02 10:15:00,33.1,17.4,30.27,SE,135,3.8,3.8,52,0.00,,CLR,0.00,VWS V14.01,2013-02-02 15:15:00,
2013-02-02 10:20:00,33.4,17.7,30.27,ESE,112,6.3,6.3,52,0.00,,CLR,0.00,VWS V14.01,2013-02-02 15:20:00,
2013-02-02 10:25:00,33.6,17.9,30.27,East,90,7.6,7.6,52,0.00,,CLR,0.00,VWS V14.01,2013-02-02 15:25:00,
2013-02-02 10:31:00,33.8,17.6,30.27,SE,135,3.4,3.4,51,0.00,,CLR,0.00,VWS V14.01,2013-02-02 15:31:00,
2013-02-02 10:36:00,34.0,17.8,30.27,SW,225,2.9,2.9,51,0.00,,CLR,0.00,VWS V14.01,2013-02-02 15:36:00,
2013-02-02 10:41:00,34.5,18.3,30.27,South,180,3.4,3.4,51,0.00,,CLR,0.00,VWS V14.01,2013-02-02 15:41:00,
2013-02-02 10:46:00,34.9,18.6,30.27,WSW,248,2.9,2.9,51,0.00,,CLR,0.00,VWS V14.01,2013-02-02 15:46:00,
2013-02-02 10:51:00,35.2,18.9,30.27,East,90,4.3,4.3,51,0.00,,CLR,0.00,VWS V14.01,2013-02-02 15:51:00,
2013-02-02 10:56:00,35.6,19.3,30.27,SSW,202,4.0,4.0,51,0.00,,CLR,0.00,VWS V14.01,2013-02-02 15:56:00,
2013-02-02 11:01:00,36.1,19.8,30.27,SSW,202,6.3,6.3,51,0.00,,CLR,0.00,VWS V14.01,2013-02-02 16:01:00,
2013-02-02 11:07:00,36.1,19.8,30.24,South,180,4.9,4.9,51,0.00,,CLR,0.00,VWS V14.01,2013-02-02 16:07:00,
2013-02-02 11:12:00,36.9,20.4,30.24,SSE,158,3.4,3.4,51,0.00,,CLR,0.00,VWS V14.01,2013-02-02 16:12:00,
2013-02-02 11:17:00,37.4,20.5,30.24,SE,135,4.3,4.3,50,0.00,,CLR,0.00,VWS V14.01,2013-02-02 16:17:00,
2013-02-02 11:22:00,37.8,20.8,30.21,WSW,248,3.1,3.1,50,0.00,,CLR,0.00,VWS V14.01,2013-02-02 16:22:00,
2013-02-02 11:27:00,37.0,20.6,30.21,SSW,202,3.1,3.1,51,0.00,,CLR,0.00,VWS V14.01,2013-02-02 16:27:00,
2013-02-02 11:32:00,37.4,20.5,30.21,WSW,248,3.4,3.4,50,0.00,,CLR,0.00,VWS V14.01,2013-02-02 16:32:00,
2013-02-02 11:37:00,38.3,21.3,30.21,SSE,158,1.3,1.3,50,0.00,,CLR,0.00,VWS V14.01,2013-02-02 16:37:00,
2013-02-02 11:42:00,38.7,21.6,30.21,SSW,202,2.5,2.5,50,0.00,,CLR,0.00,VWS V14.01,2013-02-02 16:42:00,
2013-02-02 11:47:00,39.6,22.5,30.21,SSW,202,3.4,3.4,50,0.00,,CLR,0.00,VWS V14.01,2013-02-02 16:47:00,
2013-02-02 11:52:00,40.5,23.3,30.21,SSE,158,9.0,9.0,50,0.00,,CLR,0.00,VWS V14.01,2013-02-02 16:52:00,
2013-02-02 11:57:00,40.1,23.0,30.21,SSW,202,7.6,7.6,50,0.00,,CLR,0.00,VWS V14.01,2013-02-02 16:57:00,
2013-02-02 12:02:00,39.9,22.8,30.21,SW,225,5.8,5.8,50,0.00,,CLR,0.00,VWS V14.01,2013-02-02 17:02:00,
2013-02-02 12:07:00,40.3,23.1,30.18,SSW,202,7.2,7.2,50,0.00,,CLR,0.00,VWS V14.01,2013-02-02 17:07:00,
2013-02-02 12:12:00,40.5,23.3,30.18,SSW,202,9.8,9.8,50,0.00,,CLR,0.00,VWS V14.01,2013-02-02 17:12:00,
2013-02-02 12:17:00,40.8,23.6,30.18,SSW,202,7.2,7.2,50,0.00,,CLR,0.00,VWS V14.01,2013-02-02 17:17:00,
2013-02-02 12:22:00,41.4,24.1,30.18,SSW,202,6.9,6.9,50,0.00,,CLR,0.00,VWS V14.01,2013-02-02 17:22:00,
2013-02-02 12:28:00,41.7,24.5,30.18,SSW,202,4.9,4.9,50,0.00,,CLR,0.00,VWS V14.01,2013-02-02 17:28:00,
2013-02-02 12:33:00,41.7,24.5,30.18,SSW,202,6.3,6.3,50,0.00,,CLR,0.00,VWS V14.01,2013-02-02 17:33:00,
2013-02-02 12:38:00,42.4,25.1,30.15,SSW,202,7.6,7.6,50,0.00,,CLR,0.00,VWS V14.01,2013-02-02 17:38:00,
2013-02-02 12:43:00,42.8,25.0,30.15,WSW,248,4.7,4.7,49,0.00,,CLR,0.00,VWS V14.01,2013-02-02 17:43:00,
2013-02-02 12:48:00,43.3,25.5,30.15,SSW,202,6.3,6.3,49,0.00,,CLR,0.00,VWS V14.01,2013-02-02 17:48:00,
2013-02-02 12:53:00,42.8,25.0,30.15,SW,225,11.0,11.0,49,0.00,,CLR,0.00,VWS V14.01,2013-02-02 17:53:00,
2013-02-02 12:58:00,43.3,25.5,30.15,SW,225,6.5,6.5,49,0.00,,CLR,0.00,VWS V14.01,2013-02-02 17:58:00,
2013-02-02 13:03:00,43.5,25.6,30.15,SW,225,10.1,10.1,49,0.00,,CLR,0.00,VWS V14.01,2013-02-02 18:03:00,
2013-02-02 13:08:00,44.1,26.1,30.15,South,180,5.4,5.4,49,0.00,,CLR,0.00,VWS V14.01,2013-02-02 18:08:00,
2013-02-02 13:14:00,44.6,26.6,30.15,WSW,248,7.6,7.6,49,0.00,,CLR,0.00,VWS V14.01,2013-02-02 18:14:00,
2013-02-02 13:19:00,45.1,27.1,30.15,SSW,202,11.9,11.9,49,0.00,,CLR,0.00,VWS V14.01,2013-02-02 18:19:00,
2013-02-02 13:24:00,44.8,26.8,30.12,SW,225,4.0,4.0,49,0.00,,CLR,0.00,VWS V14.01,2013-02-02 18:24:00,
2013-02-02 13:29:00,45.9,27.8,30.12,WSW,248,5.8,5.8,49,0.00,,CLR,0.00,VWS V14.01,2013-02-02 18:29:00,
2013-02-02 13:34:00,45.1,27.1,30.12,WSW,248,5.6,5.6,49,0.00,,CLR,0.00,VWS V14.01,2013-02-02 18:34:00,
2013-02-02 13:39:00,46.0,28.0,30.09,South,180,7.8,7.8,49,0.00,,CLR,0.00,VWS V14.01,2013-02-02 18:39:00,
2013-02-02 13:44:00,45.9,27.8,30.09,SW,225,8.5,8.5,49,0.00,,CLR,0.00,VWS V14.01,2013-02-02 18:44:00,
2013-02-02 13:49:00,46.0,28.0,30.09,SSW,202,5.6,5.6,49,0.00,,CLR,0.00,VWS V14.01,2013-02-02 18:49:00,
2013-02-02 13:54:00,46.8,28.1,30.09,WSW,248,8.5,8.5,48,0.00,,CLR,0.00,VWS V14.01,2013-02-02 18:54:00,
2013-02-02 13:59:00,47.3,28.6,30.09,SW,225,4.3,4.3,48,0.00,,CLR,0.00,VWS V14.01,2013-02-02 18:59:00,
2013-02-02 14:04:00,46.0,28.0,30.09,SW,225,7.4,7.4,49,0.00,,CLR,0.00,VWS V14.01,2013-02-02 19:04:00,
2013-02-02 14:09:00,46.6,28.0,30.09,SW,225,10.3,10.3,48,0.00,,CLR,0.00,VWS V14.01,2013-02-02 19:09:00,
2013-02-02 14:14:00,46.8,28.1,30.09,West,270,5.4,5.4,48,0.00,,CLR,0.00,VWS V14.01,2013-02-02 19:14:00,
2013-02-02 14:19:00,46.4,27.8,30.09,West,270,5.8,5.8,48,0.00,,CLR,0.00,VWS V14.01,2013-02-02 19:19:00,
2013-02-02 14:24:00,46.4,27.8,30.09,SW,225,5.6,5.6,48,0.00,,CLR,0.00,VWS V14.01,2013-02-02 19:24:00,
2013-02-02 14:29:00,47.7,29.0,30.09,WNW,292,6.5,6.5,48,0.00,,CLR,0.00,VWS V14.01,2013-02-02 19:29:00,
2013-02-02 14:35:00,47.3,28.6,30.09,West,270,7.8,7.8,48,0.00,,CLR,0.00,VWS V14.01,2013-02-02 19:35:00,
2013-02-02 14:40:00,47.1,28.5,30.09,WSW,248,7.2,7.2,48,0.00,,FEW085,0.00,VWS V14.01,2013-02-02 19:40:00,
2013-02-02 14:45:00,47.5,28.8,30.09,WSW,248,7.4,7.4,48,0.00,,FEW085,0.00,VWS V14.01,2013-02-02 19:45:00,
2013-02-02 14:50:00,48.0,29.3,30.09,WSW,248,3.6,3.6,48,0.00,,FEW085,0.00,VWS V14.01,2013-02-02 19:50:00,
2013-02-02 14:55:00,48.4,29.6,30.09,South,180,12.3,12.3,48,0.00,,FEW085,0.00,VWS V14.01,2013-02-02 19:55:00,
2013-02-02 15:00:00,47.8,29.1,30.09,WSW,248,7.8,7.8,48,0.00,,FEW085,0.00,VWS V14.01,2013-02-02 20:00:00,
2013-02-02 15:05:00,47.3,28.6,30.09,SW,225,9.6,9.6,48,0.00,,FEW085,0.00,VWS V14.01,2013-02-02 20:05:00,
2013-02-02 15:10:00,47.5,28.8,30.09,SSW,202,7.2,7.2,48,0.00,,FEW085,0.00,VWS V14.01,2013-02-02 20:10:00,
2013-02-02 15:15:00,48.0,29.3,30.09,SSW,202,7.4,7.4,48,0.00,,FEW085,0.00,VWS V14.01,2013-02-02 20:15:00,
2013-02-02 15:20:00,47.7,29.0,30.09,WSW,248,7.2,7.2,48,0.00,,FEW085,0.00,VWS V14.01,2013-02-02 20:20:00,
2013-02-02 15:25:00,47.8,29.1,30.09,WSW,248,8.7,8.7,48,0.00,,FEW085,0.00,VWS V14.01,2013-02-02 20:25:00,
2013-02-02 15:31:00,48.0,29.3,30.09,SW,225,7.2,7.2,48,0.00,,FEW085,0.00,VWS V14.01,2013-02-02 20:31:00,
2013-02-02 15:36:00,48.9,30.1,30.09,South,180,7.6,7.6,48,0.00,,FEW085,0.00,VWS V14.01,2013-02-02 20:36:00,
2013-02-02 15:41:00,49.1,30.3,30.06,SSW,202,6.3,6.3,48,0.00,,FEW085,0.00,VWS V14.01,2013-02-02 20:41:00,
2013-02-02 15:46:00,48.2,29.5,30.06,SW,225,11.9,11.9,48,0.00,,SCT080,0.00,VWS V14.01,2013-02-02 20:46:00,
2013-02-02 15:51:00,47.7,29.0,30.06,SW,225,10.1,10.1,48,0.00,,SCT080,0.00,VWS V14.01,2013-02-02 20:51:00,
2013-02-02 15:56:00,48.0,29.3,30.06,SW,225,7.2,7.2,48,0.00,,SCT080,0.00,VWS V14.01,2013-02-02 20:56:00,
2013-02-02 16:01:00,48.2,29.5,30.06,SSW,202,3.8,3.8,48,0.00,,SCT080,0.00,VWS V14.01,2013-02-02 21:01:00,
2013-02-02 16:06:00,48.7,29.9,30.06,South,180,4.9,4.9,48,0.00,,SCT080,0.00,VWS V14.01,2013-02-02 21:06:00,
2013-02-02 16:11:00,49.6,30.8,30.06,WSW,248,5.4,5.4,48,0.00,,SCT080,0.00,VWS V14.01,2013-02-02 21:11:00,
2013-02-02 16:16:00,49.1,30.3,30.06,SSE,158,6.5,6.5,48,0.00,,SCT080,0.00,VWS V14.01,2013-02-02 21:16:00,
2013-02-02 16:21:00,49.5,30.6,30.06,WSW,248,5.6,5.6,48,0.00,,SCT080,0.00,VWS V14.01,2013-02-02 21:21:00,
2013-02-02 16:26:00,48.7,29.9,30.06,SSW,202,6.5,6.5,48,0.00,,SCT080,0.00,VWS V14.01,2013-02-02 21:26:00,
2013-02-02 16:31:00,48.6,29.8,30.06,SW,225,5.8,5.8,48,0.00,,SCT080,0.00,VWS V14.01,2013-02-02 21:31:00,
2013-02-02 16:36:00,48.6,29.8,30.03,SW,225,7.8,7.8,48,0.00,,SCT120,0.00,VWS V14.01,2013-02-02 21:36:00,
2013-02-02 16:41:00,48.6,29.8,30.03,WSW,248,7.6,7.6,48,0.00,,SCT120,0.00,VWS V14.01,2013-02-02 21:41:00,
2013-02-02 16:46:00,48.6,29.8,30.03,SW,225,3.6,3.6,48,0.00,,SCT120,0.00,VWS V14.01,2013-02-02 21:46:00,
2013-02-02 16:51:00,48.7,29.9,30.03,SW,225,3.8,3.8,48,0.00,,SCT120,0.00,VWS V14.01,2013-02-02 21:51:00,
2013-02-02 16:57:00,48.7,29.9,30.03,SSW,202,10.3,10.3,48,0.00,,SCT120,0.00,VWS V14.01,2013-02-02 21:57:00,
2013-02-02 17:02:00,48.7,29.9,30.03,SSW,202,5.8,5.8,48,0.00,,SCT120,0.00,VWS V14.01,2013-02-02 22:02:00,
2013-02-02 17:07:00,48.4,29.6,30.03,SSW,202,8.1,8.1,48,0.00,,SCT120,0.00,VWS V14.01,2013-02-02 22:07:00,
2013-02-02 17:12:00,48.4,29.6,30.03,SSW,202,4.9,4.9,48,0.00,,SCT120,0.00,VWS V14.01,2013-02-02 22:12:00,
2013-02-02 17:17:00,47.7,29.0,30.03,SW,225,3.4,3.4,48,0.00,,SCT120,0.00,VWS V14.01,2013-02-02 22:17:00,
2013-02-02 17:22:00,47.5,28.8,30.03,SW,225,5.4,5.4,48,0.00,,SCT120,0.00,VWS V14.01,2013-02-02 22:22:00,
2013-02-02 17:27:00,47.5,28.8,30.03,SSW,202,3.4,3.4,48,0.00,,SCT120,0.00,VWS V14.01,2013-02-02 22:27:00,
2013-02-02 17:33:00,47.1,28.5,30.03,WSW,248,4.0,4.0,48,0.00,,SCT120,0.00,VWS V14.01,2013-02-02 22:33:00,
2013-02-02 17:38:00,47.3,28.6,30.03,WSW,248,6.3,6.3,48,0.00,,SCT120,0.00,VWS V14.01,2013-02-02 22:38:00,
2013-02-02 17:43:00,47.1,28.5,30.03,SW,225,2.5,2.5,48,0.00,,OVC080,0.00,VWS V14.01,2013-02-02 22:43:00,
2013-02-02 17:48:00,46.9,28.3,30.03,WSW,248,4.0,4.0,48,0.00,,OVC080,0.00,VWS V14.01,2013-02-02 22:48:00,
2013-02-02 17:53:00,46.9,28.3,30.03,SW,225,6.3,6.3,48,0.00,,OVC080,0.00,VWS V14.01,2013-02-02 22:53:00,
2013-02-02 17:58:00,46.9,28.3,30.03,SSW,202,3.1,3.1,48,0.00,,OVC080,0.00,VWS V14.01,2013-02-02 22:58:00,
2013-02-02 18:03:00,46.8,28.1,30.03,SSW,202,2.7,2.7,48,0.00,,OVC080,0.00,VWS V14.01,2013-02-02 23:03:00,
2013-02-02 18:08:00,46.9,28.3,30.00,South,180,3.4,3.4,48,0.00,,OVC080,0.00,VWS V14.01,2013-02-02 23:08:00,
2013-02-02 18:13:00,47.1,28.5,30.00,South,180,3.1,3.1,48,0.00,,OVC080,0.00,VWS V14.01,2013-02-02 23:13:00,
2013-02-02 18:18:00,47.3,28.6,30.00,SW,225,8.1,8.1,48,0.00,,OVC080,0.00,VWS V14.01,2013-02-02 23:18:00,
2013-02-02 18:23:00,47.3,28.6,30.00,SW,225,4.0,4.0,48,0.00,,OVC080,0.00,VWS V14.01,2013-02-02 23:23:00,
2013-02-02 18:29:00,47.5,28.8,30.00,WSW,248,6.3,6.3,48,0.00,,OVC080,0.00,VWS V14.01,2013-02-02 23:29:00,
2013-02-02 18:34:00,47.8,29.1,30.00,SW,225,15.2,15.2,48,0.00,,OVC080,0.00,VWS V14.01,2013-02-02 23:34:00,
2013-02-02 18:39:00,47.7,29.0,30.00,WSW,248,9.6,9.6,48,0.00,,OVC080,0.00,VWS V14.01,2013-02-02 23:39:00,
2013-02-02 18:44:00,47.3,28.6,30.00,SSW,202,4.3,4.3,48,0.00,,OVC095,0.00,VWS V14.01,2013-02-02 23:44:00,
2013-02-02 18:49:00,47.1,28.5,30.00,WSW,248,3.8,3.8,48,0.00,,OVC095,0.00,VWS V14.01,2013-02-02 23:49:00,
2013-02-02 18:54:00,47.1,28.5,30.00,SSW,202,4.0,4.0,48,0.00,,OVC095,0.00,VWS V14.01,2013-02-02 23:54:00,
2013-02-02 18:59:00,47.3,28.6,30.00,SW,225,8.1,8.1,48,0.00,,OVC095,0.00,VWS V14.01,2013-02-02 23:59:00,
2013-02-02 19:04:00,47.7,29.0,30.00,SW,225,13.2,13.2,48,0.00,,OVC095,0.00,VWS V14.01,2013-02-03 00:04:00,
2013-02-02 19:09:00,47.1,28.5,30.00,WSW,248,7.2,7.2,48,0.00,,OVC095,0.00,VWS V14.01,2013-02-03 00:09:00,
2013-02-02 19:14:00,47.1,28.5,30.00,WSW,248,5.8,5.8,48,0.00,,OVC050,0.00,VWS V14.01,2013-02-03 00:14:00,
2013-02-02 19:19:00,47.3,28.6,30.00,WSW,248,7.8,7.8,48,0.00,,OVC050,0.00,VWS V14.01,2013-02-03 00:19:00,
2013-02-02 19:24:00,47.1,28.5,30.00,WSW,248,4.3,4.3,48,0.00,,OVC050,0.00,VWS V14.01,2013-02-03 00:24:00,
2013-02-02 19:29:00,47.3,28.6,30.00,WSW,248,5.4,5.4,48,0.00,,OVC050,0.00,VWS V14.01,2013-02-03 00:29:00,
2013-02-02 19:34:00,47.5,28.8,30.00,SSW,202,5.4,5.4,48,0.00,,OVC050,0.00,VWS V14.01,2013-02-03 00:34:00,
2013-02-02 19:39:00,47.1,28.5,30.00,West,270,6.0,6.0,48,0.00,,OVC050,0.00,VWS V14.01,2013-02-03 00:39:00,
2013-02-02 19:45:00,47.3,28.6,30.00,WSW,248,13.9,13.9,48,0.00,,OVC050,0.00,VWS V14.01,2013-02-03 00:45:00,
2013-02-02 19:50:00,47.3,28.6,30.00,SW,225,5.6,5.6,48,0.00,,OVC050,0.00,VWS V14.01,2013-02-03 00:50:00,
2013-02-02 19:55:00,46.4,27.8,30.00,SW,225,8.7,8.7,48,0.00,,OVC050,0.00,VWS V14.01,2013-02-03 00:55:00,
2013-02-02 20:00:00,46.2,28.1,30.00,NW,315,11.0,11.0,49,0.00,,OVC050,0.00,VWS V14.01,2013-02-03 01:00:00,
2013-02-02 20:05:00,46.4,27.8,30.00,WSW,248,8.1,8.1,48,0.00,,OVC050,0.00,VWS V14.01,2013-02-03 01:05:00,
2013-02-02 20:10:00,46.2,28.1,30.03,WSW,248,5.6,5.6,49,0.00,,OVC050,0.00,VWS V14.01,2013-02-03 01:10:00,
2013-02-02 20:15:00,46.4,27.8,30.03,SW,225,8.7,8.7,48,0.00,,OVC050,0.00,VWS V14.01,2013-02-03 01:15:00,
2013-02-02 20:20:00,45.9,27.8,30.03,SW,225,15.4,15.4,49,0.00,,OVC050,0.00,VWS V14.01,2013-02-03 01:20:00,
2013-02-02 20:25:00,44.8,26.8,30.03,SW,225,15.2,15.2,49,0.00,,OVC050,0.00,VWS V14.01,2013-02-03 01:25:00,
2013-02-02 20:30:00,43.5,25.6,30.03,WSW,248,19.5,19.5,49,0.00,,OVC050,0.00,VWS V14.01,2013-02-03 01:30:00,
2013-02-02 20:35:00,42.8,25.0,30.03,WSW,248,12.5,12.5,49,0.00,,OVC070,0.00,VWS V14.01,2013-02-03 01:35:00,
2013-02-02 20:40:00,42.3,32.8,30.03,SW,225,8.1,8.1,69,0.00,,OVC070,0.00,VWS V14.01,2013-02-03 01:40:00,
2013-02-02 20:45:00,41.7,33.4,30.03,WSW,248,12.8,12.8,72,0.00,,OVC070,0.00,VWS V14.01,2013-02-03 01:45:00,
2013-02-02 20:50:00,40.8,34.8,30.03,WSW,248,15.7,15.7,79,0.00,,OVC070,0.00,VWS V14.01,2013-02-03 01:50:00,
2013-02-02 20:55:00,40.3,34.6,30.03,WSW,248,8.1,8.1,80,0.00,,OVC070,0.00,VWS V14.01,2013-02-03 01:55:00,
2013-02-02 21:00:00,40.1,34.4,30.03,SW,225,13.4,13.4,80,0.00,,OVC070,0.00,VWS V14.01,2013-02-03 02:00:00,
2013-02-02 21:05:00,39.7,34.7,30.03,SW,225,13.2,13.2,82,0.00,,OVC070,0.00,VWS V14.01,2013-02-03 02:05:00,
2013-02-02 21:10:00,39.6,34.8,30.03,WSW,248,6.3,6.3,83,0.00,,OVC070,0.00,VWS V14.01,2013-02-03 02:10:00,
2013-02-02 21:15:00,39.4,34.7,30.03,SSW,202,7.2,7.2,83,0.00,,OVC070,0.00,VWS V14.01,2013-02-03 02:15:00,
2013-02-02 21:20:00,39.4,35.0,30.03,WSW,248,5.4,5.4,84,0.00,,OVC070,0.00,VWS V14.01,2013-02-03 02:20:00,
2013-02-02 21:26:00,39.4,35.2,30.03,WSW,248,8.5,8.5,85,0.00,,OVC070,0.00,VWS V14.01,2013-02-03 02:26:00,
2013-02-02 21:31:00,39.4,35.2,30.03,WSW,248,5.4,5.4,85,0.00,,OVC070,0.00,VWS V14.01,2013-02-03 02:31:00,
2013-02-02 21:36:00,39.4,35.8,30.03,SW,225,5.4,5.4,87,0.00,,OVC070,0.00,VWS V14.01,2013-02-03 02:36:00,
2013-02-02 21:41:00,39.2,36.0,30.03,WSW,248,7.8,7.8,88,0.00,,-RA,0.00,VWS V14.01,2013-02-03 02:41:00,
2013-02-02 21:46:00,39.2,36.0,30.03,WSW,248,8.5,8.5,88,0.00,,-RA,0.00,VWS V14.01,2013-02-03 02:46:00,
2013-02-02 21:51:00,39.2,36.0,30.03,WSW,248,9.8,9.8,88,0.00,,-RA,0.00,VWS V14.01,2013-02-03 02:51:00,
2013-02-02 21:56:00,39.0,36.1,30.03,West,270,5.6,5.6,89,0.00,,-RA,0.00,VWS V14.01,2013-02-03 02:56:00,
2013-02-02 22:01:00,39.0,36.1,30.03,West,270,3.8,3.8,89,0.00,,-RA,0.00,VWS V14.01,2013-02-03 03:01:00,
2013-02-02 22:07:00,39.0,36.1,30.00,WSW,248,5.6,5.6,89,0.00,,-RA,0.00,VWS V14.01,2013-02-03 03:07:00,
2013-02-02 22:12:00,39.0,36.3,30.00,WSW,248,5.4,5.4,90,0.00,,-RA,0.00,VWS V14.01,2013-02-03 03:12:00,
2013-02-02 22:17:00,39.2,36.2,30.00,West,270,6.0,6.0,89,0.00,,-RA,0.00,VWS V14.01,2013-02-03 03:17:00,
2013-02-02 22:22:00,39.2,36.2,30.00,WSW,248,8.7,8.7,89,0.00,,-RA,0.00,VWS V14.01,2013-02-03 03:22:00,
2013-02-02 22:27:00,39.2,36.2,30.00,WSW,248,7.4,7.4,89,0.00,,-RA,0.00,VWS V14.01,2013-02-03 03:27:00,
2013-02-02 22:32:00,39.2,36.2,30.00,West,270,4.3,4.3,89,0.00,,-RA,0.00,VWS V14.01,2013-02-03 03:32:00,
2013-02-02 22:37:00,39.2,36.2,30.00,West,270,8.7,8.7,89,0.00,,OVC055,0.00,VWS V14.01,2013-02-03 03:37:00,
2013-02-02 22:42:00,39.2,36.2,30.00,West,270,7.8,7.8,89,0.00,,OVC055,0.00,VWS V14.01,2013-02-03 03:42:00,
2013-02-02 22:47:00,39.2,36.2,30.00,WSW,248,5.4,5.4,89,0.00,,OVC055,0.00,VWS V14.01,2013-02-03 03:47:00,
2013-02-02 22:52:00,39.4,36.4,30.00,WSW,248,5.6,5.6,89,0.00,,OVC055,0.00,VWS V14.01,2013-02-03 03:52:00,
2013-02-02 22:57:00,39.2,36.0,30.00,West,270,4.9,4.9,88,0.00,,OVC055,0.00,VWS V14.01,2013-02-03 03:57:00,
2013-02-02 23:03:00,38.8,35.6,30.00,WNW,292,11.4,11.4,88,0.00,,OVC055,0.00,VWS V14.01,2013-02-03 04:03:00,
2013-02-02 23:08:00,38.8,35.6,29.97,WSW,248,4.3,4.3,88,0.00,,OVC055,0.00,VWS V14.01,2013-02-03 04:08:00,
2013-02-02 23:13:00,38.8,35.3,29.97,WSW,248,5.6,5.6,87,0.00,,OVC055,0.00,VWS V14.01,2013-02-03 04:13:00,
2013-02-02 23:18:00,38.7,35.1,29.97,WSW,248,7.8,7.8,87,0.00,,OVC055,0.00,VWS V14.01,2013-02-03 04:18:00,
2013-02-02 23:23:00,38.5,35.0,29.97,WSW,248,5.6,5.6,87,0.00,,OVC055,0.00,VWS V14.01,2013-02-03 04:23:00,
2013-02-02 23:28:00,38.5,34.7,29.97,WSW,248,8.5,8.5,86,0.00,,OVC055,0.00,VWS V14.01,2013-02-03 04:28:00,
2013-02-02 23:33:00,38.3,34.5,29.97,WSW,248,4.9,4.9,86,0.00,,OVC055,0.00,VWS V14.01,2013-02-03 04:33:00,
2013-02-02 23:38:00,38.5,35.0,29.97,WSW,248,7.8,7.8,87,0.00,,OVC055,0.00,VWS V14.01,2013-02-03 04:38:00,
2013-02-02 23:43:00,38.1,34.6,29.97,WSW,248,6.3,6.3,87,0.00,,OVC041,0.00,VWS V14.01,2013-02-03 04:43:00,
2013-02-02 23:48:00,38.7,35.1,29.97,WSW,248,10.5,10.5,87,0.00,,OVC041,0.00,VWS V14.01,2013-02-03 04:48:00,
2013-02-02 23:53:00,38.5,35.0,29.97,SW,225,8.1,8.1,87,0.00,,OVC041,0.00,VWS V14.01,2013-02-03 04:53:00,
2013-02-02 23:58:00,38.1,34.9,29.97,SSW,202,5.6,5.6,88,0.00,,OVC041,0.00,VWS V14.01,2013-02-03 04:58:00,